[[{"header":{"parameterUnit":"m.s-1","parameterCategory":1,"la1":30.2991,"la2":30.254,"lo1":-89.0895,"lo2":-89.0444,"dy":0.0017,"dx":0.0017,"nx":28,"ny":28,"refTime":"2026-02-01T09:00:00:Z","depth":0,"parameterNumber":2,"parameterNumberName":"U-component_of_WINDS"},"data":[0,0,0,0,0,0,0,0,0,0,0,0,0,0,0,0,0,0,0,0,0,0,0,0,0,0,0,0,0,0,0,0,0,0,0,0,0,0,0,0,0,0,0,0,0,0,0,0,0,0,0,0,0,0,0,0,0,0,3.567,3.5671,0,3.5816,3.5818,3.5819,3.5812,3.581,3.5808,3.5806,3.5955,3.5961,3.5967,0,0,0,0,0,0,0,0,0,0,0,0,0,3.5383,3.5389,3.567,3.5672,3.5673,3.5816,3.5818,3.582,3.5812,3.581,3.5807,3.5805,3.5954,3.5961,3.5968,0,0,0,0,0,0,0,0,0,0,0,0,0,3.5516,3.539,3.5669,3.5687,3.569,3.5815,3.5818,3.582,3.5813,3.581,3.5807,3.5804,3.5951,3.596,3.5969,3.6086,0,0,3.5996,3.6,0,0,0,0,0,0,0,0,3.5509,3.5527,3.5682,3.5686,3.5689,3.5792,3.5772,3.5909,3.5814,3.5766,3.5806,3.5802,3.5904,3.5916,3.5951,3.6093,3.61,3.5997,3.6002,3.6006,3.6008,0,0,0,0,0,0,0,3.55,3.5521,3.5728,3.5685,3.5689,3.5687,3.5703,3.5798,3.5851,3.577,3.577,3.5787,3.5905,3.5942,3.5954,3.6102,3.5996,3.6004,3.601,3.6013,3.6348,3.6351,0,0,0,0,0,0,3.5487,3.5513,3.5723,3.5732,3.559,3.5695,3.5712,3.5763,3.585,3.586,3.579,3.5786,3.5928,3.5944,3.5959,3.6102,3.6006,3.6014,3.6019,3.6344,3.6348,3.6352,0,0,0,0,0,0,3.5481,3.5506,3.5717,3.5623,3.5649,3.5703,3.576,3.5767,3.5804,3.5865,3.5874,3.5818,3.5927,3.5947,3.6055,3.6107,3.6018,3.6026,3.634,3.6345,3.635,3.6389,0,0,0,0,0,0,3.5472,3.5503,3.5549,3.5624,3.5654,3.581,3.5763,3.5772,3.582,3.5816,3.5894,3.5903,3.5926,3.6041,3.6063,3.6118,3.6033,3.6335,3.6342,3.6349,3.6384,3.6395,3.6405,0,0,0,0,0,3.5462,3.5554,3.5551,3.5577,3.5712,3.5813,3.5831,3.5855,3.5824,3.587,3.5908,3.5901,3.6098,3.6052,3.6077,3.6135,3.6332,3.634,3.6348,3.6379,3.6393,3.6405,0,0,0,0,0,0,3.5485,3.5565,3.5562,3.5681,3.574,3.5812,3.5871,3.5869,3.5939,3.5933,3.596,3.5977,3.6085,3.6121,3.6069,3.6253,3.6211,3.6224,3.6226,3.624,3.6251,3.624,3.6041,0,0,0,0,0,3.5503,3.5579,3.5644,3.5743,3.5773,3.5817,3.5862,3.5875,3.5937,3.5962,3.6009,3.607,3.6145,3.6195,3.6268,3.6389,3.6405,3.6441,3.6452,3.646,3.6471,3.6537,3.6554,3.6378,3.6378,3.6378,0,0,3.5543,3.5596,3.5642,3.5749,3.5796,3.5874,3.5838,3.5921,3.5979,3.5975,3.6079,3.6116,3.6185,3.63,3.6353,3.6333,3.6523,3.6471,3.6477,3.6484,3.6547,3.6564,3.6578,3.6384,3.6383,3.6382,0,0,3.5655,3.5703,3.579,3.5838,3.591,3.5938,3.5959,3.6031,3.6055,3.616,3.6159,3.6227,3.6357,3.6406,3.6449,3.6578,3.6573,3.6601,3.6658,3.6721,3.6735,3.6748,3.6793,3.6809,3.6612,3.6612,3.6612,0,3.5695,3.5811,3.5835,3.5918,3.5965,3.5965,3.6053,3.6099,3.6191,3.6223,3.62,3.6362,3.641,3.6535,3.6567,3.6601,3.6625,3.6592,3.6731,3.6744,3.6756,3.6799,3.6816,3.6615,3.6614,3.6614,3.6614,0,3.5857,3.5937,3.5999,3.6088,3.6141,3.6227,3.6263,3.6314,3.6323,3.6353,3.646,3.6516,3.66,3.6631,3.664,3.6758,3.6743,3.6726,3.6684,3.6775,3.6816,3.6833,3.6619,3.6618,3.6617,3.6616,0,0,3.5987,3.6087,3.6109,3.6149,3.6229,3.6291,3.6376,3.6458,3.6501,3.6565,3.6637,3.6746,3.673,3.6778,3.6792,3.6848,3.6946,3.6824,3.6826,3.6844,3.7078,3.709,3.7109,3.6943,3.6946,3.6949,3.7072,0,3.6106,3.6257,3.628,3.6413,3.6487,3.6488,3.6562,3.6618,3.6649,3.6716,3.675,3.6827,3.68,3.6829,3.6884,3.6922,3.6993,3.6914,3.7009,3.7012,3.6991,3.7131,3.7145,3.7258,3.7088,3.7091,3.7093,0,3.6266,3.6333,3.6473,3.6542,3.6574,3.664,3.6716,3.6781,3.6844,3.6862,3.6915,3.6923,3.701,3.6965,3.7085,3.7031,3.7071,3.7096,3.7101,3.711,3.7058,3.7143,3.7294,3.7311,3.7119,3.7117,3.7115,0,3.6346,3.6472,3.6572,3.6606,3.6688,3.6735,3.6771,3.6832,3.6879,3.6946,3.6976,3.7052,3.7094,3.7152,3.718,3.7144,3.7299,3.7255,3.7315,3.7315,3.7348,3.7345,3.7507,3.7375,3.7375,3.7374,3.7374,0,3.6477,3.6562,3.6609,3.667,3.6766,3.6791,3.6885,3.692,3.6973,3.7041,3.7046,3.711,3.7143,3.7211,3.7233,3.7329,3.7348,3.7365,3.7369,3.7364,3.7362,3.739,3.7383,3.7379,3.7378,3.7377,3.7376,0,3.6583,3.6617,3.6726,3.6795,3.6814,3.6881,3.694,3.6999,3.7029,3.7114,3.7136,3.7183,3.7263,3.7296,3.7395,3.741,3.752,3.7519,3.7498,3.75,3.7558,3.7551,3.7743,3.7769,3.762,3.7622,3.7623,0,3.6664,3.673,3.6805,3.6851,3.6888,3.6962,3.701,3.7037,3.7087,3.7164,3.7214,3.7294,3.7359,3.7488,3.753,3.7606,3.7606,3.7668,3.7617,3.7609,3.7606,3.7601,3.7608,3.7677,3.7679,3.768,3.7681,0,3.6804,3.6817,3.6886,3.6962,3.7019,3.7079,3.7138,3.7175,3.7211,3.7267,3.7349,3.74,3.75,3.7579,3.7657,3.7694,3.7693,3.7696,3.7714,3.7709,3.7694,3.7702,3.7523,3.7692,3.7691,3.769,3.7689,3.7689,3.6899,3.6957,3.7019,3.7096,3.7143,3.7197,3.7256,3.7293,3.7362,3.7445,3.7457,3.7545,3.7605,3.7709,3.7749,3.7818,3.7802,3.7828,3.7834,3.784,3.7843,3.7683,3.7832,3.7832,3.7831,3.7831,3.7831,0,3.7039,3.7078,3.7148,3.723,3.729,3.7284,3.7349,3.7399,3.7476,3.7533,3.7597,3.7691,3.7767,3.7815,3.7892,3.7938,3.7939,3.7957,3.7954,3.7962,3.7854,3.783,3.7954,3.7954,3.7954,3.7954,3.7954,3.7954,3.7118,3.7216,3.7236,3.7356,3.7395,3.7481,3.7518,3.7568,3.7613,3.7718,3.7781,3.7812,3.7865,3.7946,3.8015,3.8028,3.8055,3.8074,3.8085,3.7983,3.797,3.7957,3.7935,3.808,3.808,3.8187,3.8188,3.8189]},{"header":{"parameterUnit":"m.s-1","parameterCategory":1,"la1":30.2991,"la2":30.254,"lo1":-89.0895,"lo2":-89.0444,"dy":0.0017,"dx":0.0017,"nx":28,"ny":28,"refTime":"2026-02-01T09:00:00:Z","depth":0,"parameterNumber":3,"parameterNumberName":"V-component_of_WINDS"},"data":[0,0,0,0,0,0,0,0,0,0,0,0,0,0,0,0,0,0,0,0,0,0,0,0,0,0,0,0,0,0,0,0,0,0,0,0,0,0,0,0,0,0,0,0,0,0,0,0,0,0,0,0,0,0,0,0,0,0,-0.5763,-0.5763,0,-0.5829,-0.5829,-0.583,-0.5863,-0.5864,-0.5864,-0.5864,-0.5932,-0.5933,-0.5935,0,0,0,0,0,0,0,0,0,0,0,0,0,-0.5667,-0.5669,-0.5763,-0.5764,-0.5764,-0.5828,-0.5829,-0.583,-0.5863,-0.5864,-0.5864,-0.5864,-0.5931,-0.5933,-0.5935,0,0,0,0,0,0,0,0,0,0,0,0,0,-0.5718,-0.5669,-0.5763,-0.5789,-0.5792,-0.5828,-0.5829,-0.5831,-0.5863,-0.5864,-0.5864,-0.5864,-0.593,-0.5933,-0.5936,-0.5952,0,0,-0.5944,-0.5945,0,0,0,0,0,0,0,0,-0.5715,-0.5722,-0.5784,-0.5787,-0.579,-0.5838,-0.5821,-0.5871,-0.5863,-0.5836,-0.5864,-0.5864,-0.59,-0.5906,-0.5918,-0.5955,-0.5958,-0.5944,-0.5946,-0.5947,-0.5948,0,0,0,0,0,0,0,-0.5712,-0.5719,-0.5789,-0.5785,-0.5789,-0.5798,-0.5805,-0.583,-0.5867,-0.5839,-0.5841,-0.5848,-0.5902,-0.5915,-0.592,-0.5959,-0.5944,-0.5946,-0.5948,-0.5949,-0.6013,-0.6013,0,0,0,0,0,0,-0.5704,-0.5716,-0.5787,-0.5791,-0.5752,-0.5799,-0.5807,-0.5823,-0.5867,-0.5874,-0.5848,-0.585,-0.5911,-0.5917,-0.5922,-0.5945,-0.5947,-0.5949,-0.5951,-0.6013,-0.6013,-0.6013,0,0,0,0,0,0,-0.5702,-0.571,-0.5784,-0.5754,-0.5764,-0.5801,-0.5818,-0.5824,-0.5837,-0.5875,-0.5881,-0.5855,-0.5911,-0.5918,-0.5944,-0.5947,-0.5951,-0.5953,-0.6013,-0.6013,-0.6013,-0.5989,0,0,0,0,0,0,-0.5699,-0.5709,-0.5715,-0.5754,-0.5766,-0.5804,-0.5818,-0.5825,-0.5841,-0.5844,-0.5882,-0.5889,-0.5911,-0.594,-0.5947,-0.5951,-0.5955,-0.6013,-0.6013,-0.6013,-0.5989,-0.5988,-0.5987,0,0,0,0,0,-0.5695,-0.5705,-0.5715,-0.5723,-0.5774,-0.5804,-0.5811,-0.5837,-0.5841,-0.5848,-0.5873,-0.5888,-0.5946,-0.5942,-0.595,-0.5955,-0.6013,-0.6013,-0.6013,-0.599,-0.5988,-0.5987,0,0,0,0,0,0,-0.5665,-0.5711,-0.5722,-0.5745,-0.5771,-0.581,-0.5819,-0.5834,-0.5859,-0.586,-0.5891,-0.59,-0.5923,-0.5942,-0.5937,-0.5974,-0.5981,-0.5983,-0.596,-0.5959,-0.5958,-0.5953,-0.5957,0,0,0,0,0,-0.5661,-0.5682,-0.5721,-0.5737,-0.575,-0.5782,-0.5796,-0.5814,-0.5842,-0.5853,-0.5879,-0.5906,-0.5931,-0.5946,-0.597,-0.5992,-0.6002,-0.6,-0.5999,-0.5997,-0.5998,-0.6012,-0.6012,-0.6014,-0.6014,-0.6014,0,0,-0.5653,-0.5681,-0.5692,-0.5732,-0.5754,-0.5775,-0.5791,-0.5812,-0.5829,-0.5856,-0.5882,-0.5903,-0.5935,-0.5959,-0.5971,-0.5975,-0.6,-0.5998,-0.5996,-0.5998,-0.6013,-0.6012,-0.6012,-0.6014,-0.6014,-0.6014,0,0,-0.565,-0.5672,-0.5689,-0.5711,-0.5744,-0.5766,-0.5769,-0.5807,-0.5822,-0.5848,-0.587,-0.589,-0.5931,-0.5953,-0.597,-0.5976,-0.5991,-0.5983,-0.5976,-0.5989,-0.5989,-0.5989,-0.5992,-0.5992,-0.5984,-0.5984,-0.5984,0,-0.5636,-0.5668,-0.5695,-0.5716,-0.5733,-0.5759,-0.5777,-0.5797,-0.5836,-0.5848,-0.5852,-0.5906,-0.5929,-0.5959,-0.5961,-0.5973,-0.5979,-0.5979,-0.5987,-0.5987,-0.5988,-0.5991,-0.5991,-0.5983,-0.5983,-0.5983,-0.5983,0,-0.5649,-0.5672,-0.5681,-0.5719,-0.5737,-0.5756,-0.5787,-0.5802,-0.5818,-0.584,-0.5867,-0.5897,-0.5928,-0.5936,-0.5952,-0.5969,-0.5971,-0.5981,-0.5989,-0.5986,-0.5989,-0.599,-0.5981,-0.5982,-0.5982,-0.5982,0,0,-0.5628,-0.5681,-0.5684,-0.5702,-0.5741,-0.5759,-0.5779,-0.581,-0.5823,-0.5849,-0.5868,-0.5903,-0.5913,-0.5931,-0.5951,-0.5962,-0.5966,-0.5971,-0.5972,-0.5969,-0.5987,-0.5979,-0.598,-0.5976,-0.5977,-0.5977,-0.5984,0,-0.563,-0.5667,-0.5693,-0.572,-0.5742,-0.5768,-0.5786,-0.5812,-0.5833,-0.5854,-0.5878,-0.5902,-0.5913,-0.5925,-0.5937,-0.5963,-0.597,-0.5962,-0.5994,-0.5995,-0.5985,-0.5981,-0.5973,-0.5979,-0.5986,-0.5986,-0.5986,0,-0.5636,-0.5662,-0.5692,-0.573,-0.574,-0.5755,-0.5786,-0.5806,-0.5837,-0.5852,-0.5873,-0.5893,-0.5917,-0.5923,-0.5956,-0.595,-0.5965,-0.598,-0.5981,-0.5984,-0.599,-0.5985,-0.5981,-0.5982,-0.5988,-0.5988,-0.5988,0,-0.5618,-0.566,-0.5684,-0.5698,-0.5743,-0.5753,-0.5772,-0.5803,-0.582,-0.5847,-0.5859,-0.5888,-0.5905,-0.5927,-0.5955,-0.5957,-0.5986,-0.5994,-0.5999,-0.5998,-0.6004,-0.6003,-0.6001,-0.6013,-0.6013,-0.6013,-0.6013,0,-0.5617,-0.5634,-0.5676,-0.5691,-0.5711,-0.5741,-0.5761,-0.5782,-0.581,-0.5829,-0.5854,-0.5872,-0.5907,-0.5929,-0.5951,-0.5976,-0.5983,-0.5996,-0.6001,-0.5994,-0.5992,-0.6004,-0.6004,-0.6013,-0.6013,-0.6013,-0.6013,0,-0.56,-0.5628,-0.5656,-0.5696,-0.5706,-0.572,-0.5754,-0.577,-0.5792,-0.5817,-0.5825,-0.586,-0.5888,-0.5918,-0.5956,-0.5971,-0.5995,-0.6003,-0.5984,-0.5987,-0.5991,-0.599,-0.5997,-0.5999,-0.6009,-0.6009,-0.6008,0,-0.5597,-0.5611,-0.5653,-0.5667,-0.5686,-0.5709,-0.5727,-0.5758,-0.5775,-0.5812,-0.5823,-0.5853,-0.5878,-0.5922,-0.5952,-0.5981,-0.599,-0.5991,-0.5995,-0.5987,-0.5991,-0.5989,-0.5991,-0.5989,-0.5989,-0.5989,-0.5988,0,-0.559,-0.5603,-0.5628,-0.5657,-0.5678,-0.5703,-0.5729,-0.574,-0.5776,-0.5794,-0.5823,-0.5843,-0.5882,-0.5912,-0.5945,-0.5966,-0.5983,-0.5987,-0.599,-0.5982,-0.5971,-0.5977,-0.598,-0.5987,-0.5987,-0.5987,-0.5987,-0.5987,-0.558,-0.5594,-0.5625,-0.5652,-0.5675,-0.5699,-0.5715,-0.574,-0.5765,-0.5799,-0.5816,-0.5845,-0.5877,-0.5923,-0.5944,-0.5967,-0.5972,-0.5976,-0.5977,-0.5978,-0.5976,-0.5967,-0.5973,-0.5974,-0.5974,-0.5974,-0.5974,0,-0.5574,-0.5596,-0.562,-0.5656,-0.5677,-0.5692,-0.5722,-0.5738,-0.5763,-0.5792,-0.5816,-0.585,-0.5879,-0.5912,-0.5943,-0.5956,-0.5965,-0.5963,-0.5962,-0.5967,-0.5969,-0.5964,-0.5955,-0.5955,-0.5955,-0.5955,-0.5955,-0.5955,-0.5573,-0.5597,-0.5615,-0.5652,-0.5674,-0.5702,-0.5718,-0.5741,-0.5763,-0.58,-0.5824,-0.5845,-0.5875,-0.5909,-0.5937,-0.5946,-0.5956,-0.5952,-0.5963,-0.5965,-0.5967,-0.5968,-0.5963,-0.5954,-0.5954,-0.5959,-0.5959,-0.5959]}]]